Total_Precipitation_Accumulation
-0.01 0.01 0.05 0.07 0.11 0.11 0.03 0.04 0.06 0.06 0.02 0.05 0.08 0.08 -0.01 -0.01 -0.01 0.10 0.01 0.06 0.06 0.18 0.16 0.27 0.40 0.40 0.09 0.25 0.12 0.12 0.03 0.00 0.00 0.00 0.00 0.00 0.00 0.00 0.01 0.01 0.01 0.01 0.00 0.00 0.00 0.00 0.00 0.00 0.00 0.00 0.00 0.00 0.02 0.02 0.02 0.01 0.01 0.03 0.00 0.00 0.00 0.00 0.00 0.00 0.16 0.16 0.15 0.09 0.10 0.10 0.02 0.00 0.00 0.00 0.00 0.00 0.00 0.00 0.01 0.00 0.00 -0.02 -0.01 0.00 -0.00 -0.00 0.00 0.00 0.00 0.00 0.00 0.00 0.00 0.00 0.00 0.00 0.00 0.00 0.00 0.00 0.00 0.00 0.01
-0.02 0.02 0.03 0.02 0.08 0.08 0.05 0.04 0.20 0.20 0.01 0.04 0.06 0.06 0.21 0.00 0.00 0.12 0.14 0.05 0.05 0.10 0.45 0.31 0.23 0.23 0.08 0.15 0.05 0.05 0.03 0.01 0.00 0.00 0.00 0.00 0.00 0.01 0.01 0.02 0.02 0.02 0.00 0.00 0.00 0.00 0.00 0.00 0.00 0.00 0.00 0.01 0.01 0.01 0.03 0.02 0.02 0.02 0.02 0.00 0.00 0.00 0.00 0.01 0.15 0.15 0.10 0.08 0.09 0.09 0.03 0.00 0.00 0.00 0.00 0.00 0.00 0.01 0.02 0.00 0.00 0.00 0.00 0.00 -0.00 -0.00 -0.00 0.00 0.00 0.00 0.00 0.00 0.00 0.00 0.00 0.00 0.00 0.00 0.00 0.00 0.00 0.00 0.00
-0.02 -0.01 0.05 0.03 0.12 0.12 0.05 0.03 0.04 0.04 0.06 0.02 0.07 0.07 0.28 0.02 0.02 0.10 0.18 0.12 0.12 0.08 0.23 0.59 0.34 0.34 0.09 0.17 0.02 0.02 0.01 0.00 0.00 0.00 0.00 0.00 0.00 0.01 0.02 0.02 0.02 0.02 0.00 0.00 0.00 0.00 0.00 0.00 0.00 0.00 0.00 0.01 0.01 0.01 0.01 0.02 0.02 0.01 0.00 0.00 0.00 0.00 0.00 0.02 0.10 0.10 0.08 0.06 0.05 0.05 0.03 0.00 0.00 0.00 0.00 0.00 0.00 0.01 0.01 0.00 0.00 -0.01 -0.00 -0.00 -0.03 -0.03 -0.03 0.00 0.00 0.00 0.00 0.00 0.00 0.00 0.00 0.00 0.00 0.00 0.00 0.00 0.00 0.00 0.00
-0.02 0.02 0.06 0.09 0.16 0.16 0.21 0.11 0.06 0.06 0.02 0.05 0.04 0.04 0.04 0.07 0.07 0.01 0.11 0.13 0.13 0.03 0.14 0.50 0.31 0.31 0.11 0.17 0.07 0.07 0.01 0.00 0.00 0.00 0.00 0.00 0.00 0.02 0.02 0.02 0.02 0.01 0.00 0.00 0.00 0.00 0.00 0.00 0.00 0.00 0.00 0.00 0.01 0.01 0.02 0.01 0.01 0.01 0.00 0.00 0.00 0.00 0.00 0.06 0.07 0.07 0.07 0.04 0.06 0.06 0.02 0.00 0.00 0.00 0.01 0.00 0.00 0.02 0.02 0.00 0.00 -0.02 -0.01 -0.04 -0.03 -0.03 -0.02 0.00 -0.00 -0.00 -0.00 0.00 0.00 0.00 0.00 0.00 0.00 0.00 0.00 0.00 0.00 0.00 0.00
0.02 0.02 0.05 0.15 0.13 0.13 0.14 0.28 0.15 0.15 0.03 0.00 0.08 0.08 0.01 0.11 0.11 0.08 0.12 0.12 0.12 0.05 0.02 0.39 0.38 0.38 0.09 0.10 0.06 0.06 0.03 0.01 0.00 0.00 0.00 0.00 0.00 0.02 0.02 0.01 0.01 0.00 0.00 0.00 0.00 0.00 0.00 0.00 0.00 0.00 0.00 0.00 0.00 0.00 0.01 0.01 0.01 0.01 0.00 0.00 0.00 0.00 0.00 0.07 0.10 0.10 0.11 0.06 0.06 0.06 0.02 0.00 0.00 0.00 0.01 0.00 0.00 0.03 0.01 -0.01 -0.01 -0.05 -0.05 -0.18 -0.11 -0.11 -0.00 0.00 -0.00 -0.00 -0.04 0.00 0.00 0.00 0.00 0.00 0.00 0.00 0.00 0.00 0.00 0.00 0.00
0.02 0.04 -0.01 0.11 0.18 0.18 0.17 0.29 0.32 0.32 0.08 0.08 0.10 0.10 0.02 0.35 0.35 0.31 0.04 0.09 0.09 0.06 0.03 0.25 0.31 0.31 0.04 0.04 0.09 0.09 0.10 0.09 0.01 0.01 0.00 0.01 0.01 0.03 0.02 0.01 0.01 0.00 0.00 0.00 0.00 0.00 0.00 0.00 0.00 0.00 0.00 0.00 0.01 0.01 0.01 0.00 0.00 0.00 0.00 0.00 0.00 0.00 0.09 0.07 0.11 0.11 0.18 0.08 0.06 0.06 0.03 0.01 0.01 0.01 0.00 0.00 0.00 0.01 0.02 0.00 0.00 -0.01 -0.19 -0.06 -0.06 -0.06 -0.01 -0.00 -0.01 -0.01 -0.09 0.00 0.00 0.00 0.00 0.00 0.00 0.00 0.00 0.00 0.00 0.00 0.00
0.01 -0.02 0.10 0.01 0.23 0.23 0.20 0.27 0.29 0.29 0.09 0.13 0.12 0.12 0.03 0.33 0.33 0.25 0.29 0.07 0.07 0.17 0.08 0.05 0.22 0.22 0.09 0.07 0.05 0.05 0.13 0.09 0.01 0.01 0.01 0.03 0.03 0.03 0.01 0.00 0.00 0.00 0.00 0.00 0.00 0.00 0.00 0.00 0.00 0.00 0.00 0.00 0.00 0.00 0.02 0.00 0.00 0.00 0.00 0.00 0.00 0.00 0.00 0.05 0.05 0.05 0.19 0.14 0.05 0.05 0.04 0.05 0.02 0.02 0.01 0.00 0.00 0.01 0.03 -0.01 -0.01 -0.05 -0.34 -0.10 -0.00 -0.00 -0.00 -0.14 -0.03 -0.03 -0.11 0.00 0.00 0.00 0.00 0.00 0.00 0.00 0.00 0.00 0.00 0.00 0.00
0.01 0.03 0.04 0.05 0.29 0.29 0.21 0.26 0.29 0.29 0.14 0.22 0.24 0.24 0.08 0.11 0.11 0.17 0.11 0.14 0.14 0.11 0.27 0.09 0.23 0.23 0.10 0.15 0.05 0.05 0.14 0.09 0.03 0.03 0.12 0.10 0.10 0.02 0.01 0.00 0.00 0.00 0.00 0.00 0.00 0.00 0.00 0.00 0.00 0.00 0.00 0.00 0.00 0.00 0.02 0.00 0.00 0.00 0.00 0.00 0.00 0.00 0.00 0.02 0.05 0.05 0.20 0.17 0.08 0.08 0.11 0.08 0.03 0.03 0.01 0.00 0.00 0.01 0.04 -0.07 -0.07 -0.14 -0.01 -0.10 -0.02 -0.02 -0.00 -0.30 -0.06 -0.06 -0.16 -0.06 0.00 0.00 0.00 0.00 0.00 0.00 0.00 0.00 0.00 0.00 0.00
0.00 0.02 0.00 0.02 0.25 0.25 0.19 0.20 0.30 0.30 0.29 0.28 0.29 0.29 0.30 0.18 0.18 0.13 0.11 0.13 0.13 0.12 0.22 0.19 0.05 0.05 0.03 0.17 0.09 0.09 0.03 0.09 0.05 0.05 0.12 0.10 0.10 0.03 0.00 0.00 0.00 0.00 0.00 0.00 0.00 0.00 0.00 0.00 0.00 0.00 0.00 0.00 0.00 0.00 0.04 0.00 0.00 0.00 0.00 0.00 0.00 0.00 0.03 0.04 0.03 0.03 0.19 0.20 0.13 0.13 0.13 0.09 0.06 0.06 0.01 0.00 0.00 0.00 0.03 -0.01 -0.01 -0.17 -0.30 -0.06 -0.00 -0.00 -0.00 -0.31 -0.12 -0.12 -0.20 -0.03 0.00 0.00 0.00 0.00 0.00 0.00 0.00 0.00 0.00 0.00 0.00
0.01 0.01 -0.00 -0.03 0.21 0.21 0.21 0.16 0.31 0.31 0.41 0.33 0.30 0.30 0.28 0.17 0.17 0.15 0.13 0.27 0.27 0.12 0.11 0.21 0.05 0.05 0.03 0.13 0.09 0.09 0.06 0.10 0.06 0.06 0.10 0.08 0.08 0.03 0.00 0.00 0.00 0.00 0.00 0.00 0.00 0.00 0.00 0.00 0.00 0.00 0.00 0.00 0.00 0.00 0.04 0.00 0.00 0.00 0.00 0.00 0.00 0.00 0.00 0.03 0.01 0.01 0.18 0.24 0.19 0.19 0.21 0.07 0.06 0.06 0.02 0.01 0.01 0.00 0.01 -0.06 -0.06 -0.14 -0.55 -0.14 -0.00 -0.00 -0.00 -0.00 -0.17 -0.17 -0.12 -0.00 0.00 0.00 0.00 0.00 0.00 0.00 0.00 0.00 0.00 0.00 0.00
0.02 0.01 -0.00 -0.03 0.21 0.21 0.25 0.19 0.24 0.24 0.31 0.39 0.30 0.30 0.14 0.18 0.18 0.23 0.18 0.21 0.21 0.15 0.09 0.08 0.18 0.18 0.02 0.03 0.07 0.07 0.04 0.15 0.10 0.10 0.05 0.05 0.05 0.04 0.00 0.00 0.00 0.00 0.00 0.00 0.00 0.00 0.00 0.00 0.00 0.00 0.00 0.00 0.00 0.00 0.02 0.01 0.01 0.00 0.00 0.00 0.00 0.00 0.00 0.00 0.00 0.00 0.21 0.22 0.27 0.27 0.24 0.12 0.05 0.05 0.02 0.01 0.01 -0.00 0.00 -0.07 -0.07 -0.14 -0.48 -0.04 -0.00 -0.00 0.00 -0.00 -0.19 -0.19 -0.14 -0.01 0.00 0.00 0.00 0.00 0.00 0.00 0.00 0.00 0.00 0.00 0.00
0.11 0.00 0.02 -0.01 0.16 0.16 0.24 0.15 0.27 0.27 0.27 0.38 0.36 0.36 0.38 0.41 0.41 0.29 0.34 0.27 0.27 0.20 0.07 0.11 0.14 0.14 0.06 0.03 0.12 0.12 0.05 0.06 0.12 0.12 0.03 0.02 0.02 0.02 0.01 0.00 0.00 0.00 0.00 0.00 0.00 0.00 0.00 0.00 0.00 0.00 0.00 0.00 0.00 0.00 0.02 0.01 0.01 0.00 0.00 0.00 0.00 0.00 0.00 0.00 0.05 0.05 0.19 0.23 0.26 0.26 0.24 0.10 0.04 0.04 0.02 0.00 0.00 0.00 0.00 -0.04 -0.04 -0.13 -0.33 -0.01 -0.00 -0.00 0.00 -0.04 -0.16 -0.16 -0.10 0.00 0.00 0.00 0.00 0.00 0.00 0.00 0.00 0.00 0.00 0.00 0.00
0.32 0.13 0.02 0.01 0.01 0.01 0.25 0.18 0.28 0.28 0.36 0.35 0.30 0.30 0.54 0.57 0.57 0.45 0.34 0.30 0.30 0.10 0.13 0.09 0.12 0.12 0.09 0.12 0.04 0.04 0.12 0.12 0.08 0.08 0.02 0.01 0.01 0.01 0.00 0.00 0.00 0.00 0.00 0.00 0.00 0.00 0.00 0.00 0.00 0.00 0.00 0.00 0.00 0.00 0.00 0.00 0.00 0.00 0.00 0.00 0.00 0.00 0.00 0.00 0.01 0.01 0.07 0.19 0.22 0.22 0.24 0.10 0.06 0.06 0.02 0.00 0.00 0.00 0.00 -0.01 -0.01 -0.11 -0.20 -0.01 -0.00 -0.00 0.00 -0.06 -0.10 -0.10 -0.08 -0.00 0.00 0.00 0.00 0.00 0.00 0.00 0.00 0.00 0.00 0.00 0.00
0.36 0.33 0.13 0.06 0.01 0.01 0.19 0.17 0.25 0.25 0.37 0.48 0.29 0.29 0.30 0.60 0.60 0.58 0.38 0.32 0.32 0.15 0.08 0.06 0.06 0.06 0.08 0.13 0.09 0.09 0.14 0.14 0.07 0.07 0.01 0.00 0.00 0.00 0.00 0.00 0.00 0.00 0.00 0.00 0.00 0.00 0.00 0.00 0.00 0.00 0.00 0.00 0.00 0.00 0.00 0.00 0.00 0.00 0.00 0.00 0.00 0.00 0.00 0.00 0.00 0.00 0.08 0.14 0.22 0.22 0.21 0.11 0.06 0.06 0.03 0.00 0.00 0.00 0.00 -0.02 -0.02 -0.02 -0.06 -0.00 -0.00 -0.00 -0.00 -0.03 -0.06 -0.06 -0.03 -0.00 0.00 0.00 0.00 0.00 0.00 0.00 0.00 0.00 0.00 0.00 0.00
0.38 0.44 0.27 0.02 0.02 0.02 0.15 0.20 0.24 0.24 0.29 0.50 0.47 0.47 0.35 0.43 0.43 0.51 0.42 0.30 0.30 0.14 0.15 0.05 0.05 0.05 0.05 0.12 0.10 0.10 0.12 0.10 0.13 0.13 0.00 0.00 0.00 0.00 0.00 0.00 0.00 0.00 0.00 0.00 0.00 0.00 0.00 0.00 0.00 0.00 0.00 0.00 0.00 0.00 0.00 0.00 0.00 0.00 0.00 0.00 0.00 0.00 0.00 0.00 0.00 0.00 0.08 0.14 0.20 0.20 0.17 0.16 0.07 0.07 0.03 0.00 0.00 0.00 0.00 -0.02 -0.02 -0.01 -0.02 -0.00 -0.00 -0.00 -0.01 -0.03 -0.05 -0.05 -0.01 -0.00 -0.00 -0.00 0.00 0.00 0.00 0.00 0.00 0.00 0.00 0.00 0.00
0.66 0.34 0.30 0.03 -0.01 -0.01 0.13 0.16 0.20 0.20 0.24 0.24 0.39 0.39 0.36 0.25 0.25 0.35 0.44 0.28 0.28 0.10 0.16 0.09 0.04 0.04 0.04 0.13 0.13 0.13 0.13 0.12 0.07 0.07 0.00 0.00 0.00 0.00 0.00 0.00 0.00 0.00 0.00 0.00 0.00 0.00 0.00 0.00 0.00 0.00 0.00 0.00 0.00 0.00 0.00 0.00 0.00 0.00 0.00 0.00 0.00 0.00 0.00 0.00 0.00 0.00 0.07 0.12 0.15 0.15 0.13 0.12 0.11 0.11 0.02 0.01 0.01 0.00 0.00 -0.00 -0.00 -0.00 -0.01 -0.00 -0.00 -0.00 -0.00 -0.01 -0.03 -0.03 -0.01 -0.00 0.00 0.00 0.00 0.00 0.00 0.00 0.00 0.00 0.00 0.01 0.00
0.61 0.38 0.30 0.13 0.04 0.04 0.12 0.13 0.29 0.29 0.34 0.27 0.33 0.33 0.33 0.33 0.33 0.33 0.41 0.33 0.33 0.23 0.13 0.18 0.11 0.11 0.03 0.05 0.14 0.14 0.10 0.14 0.03 0.03 0.00 0.00 0.00 0.00 0.00 0.00 0.00 0.00 0.00 0.00 0.00 0.00 0.00 0.00 0.00 0.00 0.00 0.00 0.00 0.00 0.00 0.00 0.00 0.00 0.00 0.00 0.00 0.00 0.00 0.00 0.00 0.00 0.00 0.10 0.12 0.12 0.09 0.09 0.11 0.11 0.03 0.01 0.01 0.01 0.00 -0.00 -0.00 -0.01 -0.01 -0.00 -0.00 -0.00 -0.00 -0.01 -0.01 -0.01 -0.00 -0.00 -0.00 -0.00 -0.00 0.00 0.00 0.00 0.00 0.01 0.01 0.01 0.00
0.72 0.33 0.32 0.30 0.23 0.23 0.09 0.14 0.20 0.20 0.26 0.20 0.32 0.32 0.24 0.30 0.30 0.44 0.43 0.43 0.43 0.27 0.16 0.18 0.22 0.22 0.13 0.09 0.10 0.10 0.09 0.13 0.01 0.01 0.01 0.00 0.00 0.00 0.00 0.00 0.00 0.00 0.00 0.00 0.00 0.00 0.00 0.00 0.00 0.00 0.00 0.00 0.00 0.00 0.00 0.00 0.00 0.00 0.00 0.00 0.00 0.00 0.00 0.00 0.00 0.00 0.00 0.01 0.08 0.08 0.04 0.07 0.08 0.08 0.04 0.02 0.02 0.01 0.00 0.00 0.00 0.00 -0.00 -0.00 -0.00 -0.00 -0.00 -0.01 -0.01 -0.01 0.00 -0.00 -0.00 -0.00 -0.00 -0.00 -0.00 0.00 0.00 0.00 0.00 0.01 0.00
0.50 0.42 0.33 0.32 0.33 0.33 0.13 0.16 0.11 0.11 0.23 0.14 0.39 0.39 0.22 0.26 0.26 0.36 0.42 0.47 0.47 0.32 0.15 0.12 0.20 0.20 0.15 0.22 0.11 0.11 0.09 0.05 0.01 0.01 0.00 0.00 0.00 0.00 0.00 0.00 0.00 0.00 0.00 0.00 0.00 0.00 0.00 0.00 0.00 0.00 0.00 0.00 0.00 0.00 0.00 0.00 0.00 0.00 0.00 0.00 0.00 0.00 0.00 0.00 0.00 0.00 0.00 0.00 0.04 0.04 0.01 0.02 0.04 0.04 0.01 0.02 0.02 0.02 0.00 0.00 0.00 0.00 0.00 0.00 -0.00 -0.00 -0.00 -0.00 -0.01 -0.01 -0.01 -0.00 -0.00 -0.00 -0.00 -0.00 -0.00 0.00 0.00 0.00 0.00 0.01 0.00
0.64 0.67 0.71 0.45 0.43 0.43 0.39 0.16 0.29 0.29 0.33 0.47 0.36 0.36 0.51 0.49 0.49 0.31 0.40 0.45 0.45 0.53 0.47 0.30 0.26 0.26 0.24 0.15 0.07 0.07 0.03 0.01 0.00 0.00 0.00 0.00 0.00 -0.00 -0.00 0.00 0.00 0.00 0.00 0.00 0.00 0.00 0.00 0.00 0.00 0.00 0.00 0.00 0.00 0.00 0.00 0.00 0.00 0.00 0.00 0.00 0.00 0.00 0.00 0.00 0.00 0.00 0.00 0.00 0.00 0.00 0.00 0.00 0.00 0.00 0.00 0.00 0.00 0.00 0.00 0.00 0.00 0.00 0.00 0.00 0.00 0.00 0.00 0.00 0.00 0.00 0.01 0.00 0.00 0.00 0.00 0.00 0.00 0.00 0.00 0.00 0.00 0.00 0.00
0.58 0.70 0.68 0.62 0.53 0.53 0.46 0.22 0.20 0.20 0.32 0.42 0.63 0.63 0.47 0.59 0.59 0.39 0.33 0.53 0.53 0.49 0.43 0.37 0.23 0.23 0.17 0.14 0.09 0.09 0.02 0.01 0.00 0.00 0.00 0.00 0.00 -0.00 -0.00 0.00 0.00 0.00 0.00 0.00 0.00 0.00 0.00 0.00 0.00 0.00 0.00 0.00 0.00 0.00 0.00 0.00 0.00 0.00 0.00 0.00 0.00 0.00 0.00 0.00 0.00 0.00 0.00 0.00 0.00 0.00 0.00 0.00 0.00 0.00 0.00 0.00 0.00 0.00 0.00 0.00 0.00 0.00 0.02 0.00 0.00 0.00 0.00 0.00 0.00 0.00 0.01 0.00 0.00 0.00 0.00 0.00 0.00 0.00 0.00 0.00 0.00 0.00 0.00
0.79 0.70 0.69 0.57 0.57 0.57 0.52 0.36 0.19 0.19 0.21 0.32 0.38 0.38 0.33 0.48 0.48 0.48 0.32 0.45 0.45 0.54 0.42 0.39 0.19 0.19 0.11 0.10 0.09 0.09 0.04 0.00 0.00 0.00 0.00 0.00 0.00 0.00 0.00 0.00 0.00 0.00 0.00 0.00 0.00 0.00 0.00 0.00 0.00 0.00 0.00 0.00 0.00 0.00 0.00 0.00 0.00 0.00 0.00 0.00 0.00 0.00 0.00 0.00 0.00 0.00 0.00 0.00 0.00 0.00 0.00 0.00 0.00 0.00 0.00 0.00 0.00 0.00 0.00 0.00 0.00 0.00 0.03 0.01 0.00 0.00 0.01 0.00 0.00 0.00 0.00 0.00 0.00 0.00 0.00 0.00 0.00 0.00 0.00 0.00 0.00 0.00 0.00
0.89 0.73 0.63 0.52 0.52 0.52 0.51 0.33 0.30 0.30 0.26 0.27 0.22 0.22 0.32 0.28 0.28 0.34 0.17 0.26 0.26 0.24 0.20 0.27 0.12 0.12 0.08 0.03 0.04 0.04 0.04 0.00 0.00 0.00 0.00 0.00 0.00 0.00 0.00 0.00 0.00 0.00 0.00 0.00 0.00 0.00 0.00 0.00 0.00 0.00 0.00 0.00 0.00 0.00 0.00 0.00 0.00 0.00 0.00 0.00 0.00 0.00 0.01 0.00 0.00 0.00 0.00 0.00 0.00 0.00 0.00 0.00 0.00 0.00 0.00 0.00 0.00 0.00 0.00 0.00 0.00 0.00 0.04 0.02 0.01 0.01 0.03 0.00 0.00 0.00 0.00 0.00 0.00 0.00 0.00 0.00 0.00 0.00 0.00 0.00 0.00 0.00 0.00
0.94 0.86 0.67 0.58 0.47 0.47 0.49 0.44 0.23 0.23 0.25 0.12 0.21 0.21 0.18 0.26 0.26 0.22 0.16 0.19 0.19 0.17 0.12 0.08 0.12 0.12 0.06 0.02 0.02 0.02 0.02 0.00 0.00 0.00 0.00 0.00 0.00 0.00 0.00 0.00 0.00 0.00 0.00 0.00 0.00 0.00 0.00 0.00 0.00 0.00 0.00 0.00 0.00 0.00 0.00 0.00 0.00 0.00 0.00 0.00 0.00 0.00 0.01 0.00 0.00 0.00 0.00 0.00 -0.00 -0.00 -0.00 0.00 0.00 0.00 0.00 0.00 0.00 0.00 0.00 0.00 0.00 0.00 0.06 0.03 0.03 0.03 0.04 0.00 0.00 0.00 0.00 0.00 0.00 0.00 0.00 0.00 0.00 0.00 0.00 0.00 0.00 0.00 0.00
0.94 0.94 0.75 0.65 0.47 0.47 0.43 0.37 0.25 0.25 0.16 0.11 0.14 0.14 0.18 0.24 0.24 0.23 0.16 0.16 0.16 0.12 0.07 0.06 0.04 0.04 0.03 0.02 0.02 0.02 0.02 0.01 0.00 0.00 0.00 0.00 0.00 0.00 0.00 0.00 0.00 0.00 0.00 0.00 0.00 0.00 0.00 0.00 0.00 0.00 0.00 0.00 0.00 0.00 0.00 0.00 0.00 0.00 0.00 0.00 0.00 0.00 0.02 0.00 0.00 0.00 0.00 0.00 0.00 0.00 -0.00 -0.01 0.00 0.00 0.00 0.00 0.00 0.00 0.00 0.04 0.04 0.02 0.01 0.03 0.04 0.04 0.02 0.00 0.00 0.00 0.00 0.00 0.00 0.00 0.00 0.00 0.00 0.00 0.00 0.00 0.00 0.00 0.00
0.86 0.91 0.82 0.76 0.59 0.59 0.47 0.36 0.22 0.22 0.19 0.15 0.15 0.15 0.15 0.22 0.22 0.22 0.14 0.11 0.11 0.12 0.07 0.05 0.03 0.03 0.03 0.03 0.02 0.02 0.02 0.01 0.00 0.00 0.00 0.00 0.00 0.00 0.00 0.00 0.00 0.00 0.00 0.00 0.00 0.00 0.00 0.00 0.00 0.00 0.00 0.00 0.00 0.00 0.00 0.00 0.00 0.00 0.00 0.00 0.00 0.00 0.02 0.00 0.00 0.00 0.00 0.00 0.00 0.00 0.00 -0.01 -0.01 -0.01 -0.02 -0.00 -0.00 0.00 0.02 0.08 0.08 0.07 0.03 0.11 0.05 0.05 0.03 0.01 0.00 0.00 0.00 0.00 0.00 0.00 0.00 0.00 0.00 0.00 0.00 0.00 0.00 0.00 0.00
0.69 0.85 0.85 0.78 0.72 0.72 0.51 0.43 0.26 0.26 0.20 0.20 0.20 0.20 0.13 0.25 0.25 0.24 0.16 0.09 0.09 0.09 0.10 0.05 0.03 0.03 0.01 0.02 0.03 0.03 0.01 0.01 0.00 0.00 0.00 0.00 0.00 0.00 0.00 0.00 0.00 0.00 0.00 0.00 0.00 0.00 0.00 0.00 0.00 0.00 0.00 0.00 0.00 0.00 0.00 0.00 0.00 0.00 0.00 0.00 0.00 0.00 0.01 0.00 0.00 0.00 0.00 0.00 0.01 0.01 -0.00 0.00 -0.00 -0.00 -0.02 -0.05 -0.05 -0.02 -0.02 0.11 0.11 0.11 0.05 0.15 0.07 0.07 0.04 0.01 0.00 0.00 0.00 0.00 0.00 0.00 0.00 0.00 0.00 0.00 0.00 0.00 0.00 0.00 0.00
0.63 0.69 0.84 0.87 0.72 0.72 0.61 0.55 0.28 0.28 0.22 0.24 0.33 0.33 0.22 0.16 0.16 0.24 0.19 0.06 0.06 0.08 0.04 0.04 0.02 0.02 0.01 0.01 0.01 0.01 0.01 0.01 0.00 0.00 0.00 0.00 0.00 0.00 0.00 0.00 0.00 0.00 0.00 0.00 0.00 0.00 0.00 0.00 0.00 0.00 0.00 0.00 0.00 0.00 0.00 0.00 0.00 0.00 0.00 0.00 0.00 0.00 0.04 0.00 0.00 0.00 0.00 0.00 0.01 0.01 0.00 0.00 -0.00 -0.00 0.00 -0.01 -0.01 -0.03 -0.01 0.03 0.03 0.07 0.18 0.17 0.15 0.15 0.11 0.00 0.00 0.00 0.00 0.00 0.00 0.00 0.00 0.00 0.00 0.01 0.02 0.00 0.00 0.00 0.00
0.73 0.61 0.77 0.82 0.84 0.84 0.70 0.72 0.44 0.44 0.21 0.30 0.39 0.39 0.34 0.21 0.21 0.18 0.16 0.11 0.11 0.04 0.04 0.03 0.01 0.01 0.00 0.00 0.00 0.00 0.00 0.01 0.00 0.00 0.00 0.00 0.00 0.00 0.00 0.00 0.00 0.00 0.00 0.00 0.00 0.00 0.00 0.00 0.00 0.00 0.00 0.00 0.00 0.00 0.00 0.00 0.00 0.00 0.00 0.00 0.00 0.00 0.04 0.01 0.00 0.00 0.00 0.00 0.02 0.02 0.01 0.00 0.00 0.00 0.00 -0.00 -0.00 -0.00 0.00 0.01 0.01 0.06 0.15 0.06 0.19 0.19 0.13 0.07 0.00 0.00 0.00 0.00 0.01 0.01 0.00 0.01 0.01 0.03 0.04 0.00 0.00 0.00 0.00
0.63 0.40 0.65 0.73 0.78 0.78 0.69 0.84 0.77 0.77 0.23 0.32 0.44 0.44 0.39 0.24 0.24 0.17 0.19 0.10 0.10 0.02 0.02 0.02 0.01 0.01 0.00 0.00 0.00 0.00 0.00 0.00 0.00 0.00 0.00 0.00 0.00 0.00 0.00 0.00 0.00 0.00 0.00 0.00 0.00 0.00 0.00 0.00 0.00 0.00 0.00 0.00 0.00 0.00 0.00 0.00 0.00 0.00 0.00 0.00 0.00 0.00 0.01 0.01 0.00 0.00 0.00 0.00 0.02 0.02 0.02 0.00 0.00 0.00 0.00 0.00 0.00 0.00 0.00 0.01 0.01 0.10 0.19 0.08 0.20 0.20 0.13 0.04 0.00 0.00 0.00 0.03 0.03 0.03 0.02 0.01 0.01 0.01 0.02 0.00 0.00 0.00 0.00
0.59 0.37 0.55 0.77 0.75 0.75 0.66 0.80 0.90 0.90 0.40 0.29 0.39 0.39 0.43 0.26 0.26 0.24 0.17 0.09 0.09 0.02 0.01 0.01 0.00 0.00 0.00 0.00 0.00 0.00 0.00 0.00 0.00 0.00 0.00 0.00 0.00 0.00 0.00 0.00 0.00 0.00 0.00 0.00 0.00 0.00 0.00 0.00 0.00 0.00 0.00 0.00 0.00 0.00 0.00 0.00 0.00 0.00 0.00 0.00 0.00 0.00 0.00 0.00 0.00 0.00 0.00 0.00 0.00 0.00 0.02 0.00 0.00 0.00 0.00 0.00 0.00 0.00 0.00 0.01 0.01 0.07 0.14 0.08 0.20 0.20 0.10 -0.05 -0.05 -0.05 0.02 0.05 0.04 0.04 0.03 0.01 0.01 0.01 0.02 0.00 0.00 0.00 0.00
0.80 0.50 0.46 0.77 0.67 0.67 0.61 0.77 1.02 1.02 0.53 0.34 0.38 0.38 0.34 0.28 0.28 0.18 0.15 0.07 0.07 -0.00 0.00 0.00 0.00 0.00 0.00 0.00 0.00 0.00 0.00 0.00 0.00 0.00 0.00 0.00 0.00 0.00 0.00 0.00 0.00 0.00 0.00 0.00 0.00 0.00 0.00 0.00 0.00 0.00 0.00 0.00 0.00 0.00 0.00 0.00 0.00 0.00 0.00 0.00 0.00 0.00 0.00 0.00 0.00 0.00 0.00 0.00 0.00 0.00 0.03 0.00 0.00 0.00 0.00 0.00 0.00 0.00 0.00 0.01 0.01 0.08 0.16 0.08 0.19 0.19 0.18 0.04 0.03 0.03 0.06 0.01 0.03 0.03 0.02 0.02 0.02 0.00 0.01 0.01 0.01 0.00 0.00
1.05 0.75 0.60 0.80 0.70 0.70 0.58 0.67 0.88 0.88 0.58 0.39 0.33 0.33 0.34 0.34 0.34 0.25 0.17 0.08 0.08 -0.05 -0.02 0.00 0.00 0.00 0.00 0.00 0.00 0.00 0.00 0.00 0.00 0.00 0.00 0.00 0.00 0.00 0.00 0.00 0.00 0.00 0.00 0.00 0.00 0.00 0.00 0.00 0.00 0.00 0.00 0.00 0.00 0.00 0.00 0.00 0.00 0.00 0.00 0.00 0.00 0.00 0.00 0.00 0.00 0.00 0.00 0.00 0.00 0.00 0.03 0.03 0.00 0.00 0.00 0.00 0.00 0.00 0.00 0.00 0.00 0.08 0.15 0.10 0.18 0.18 0.18 0.13 0.03 0.03 0.04 0.04 -0.04 -0.04 0.02 0.03 0.03 0.02 0.02 0.01 0.01 -0.01 -0.01
0.60 0.69 0.68 0.79 0.76 0.76 0.66 0.57 0.77 0.77 0.86 0.39 0.32 0.32 0.39 0.33 0.33 0.27 0.15 0.07 0.07 -0.01 -0.06 -0.02 0.00 0.00 0.00 0.00 0.00 0.00 0.00 0.00 0.00 0.00 0.00 0.00 0.00 0.00 0.00 0.00 0.00 0.00 0.00 0.00 0.00 0.00 0.00 0.00 0.00 0.00 0.00 0.00 0.00 0.00 0.00 0.00 0.00 0.00 0.00 0.00 0.00 0.00 0.00 0.00 0.00 0.00 0.00 0.00 0.00 0.00 0.02 0.03 0.00 0.00 0.00 0.00 0.00 0.00 0.00 0.00 0.00 0.01 0.13 0.09 0.09 0.09 0.17 0.15 0.04 0.04 0.04 0.03 0.02 0.02 0.02 0.01 0.01 -0.01 -0.02 -0.06 -0.06 -0.10 -0.13
0.17 0.31 0.40 0.76 0.82 0.82 0.80 0.55 0.61 0.61 0.79 0.54 0.33 0.33 0.29 0.28 0.28 0.27 0.16 0.12 0.12 0.07 -0.01 -0.00 -0.01 -0.01 0.00 0.00 0.00 0.00 0.00 0.00 0.00 0.00 0.00 0.00 0.00 0.00 0.00 0.00 0.00 0.00 0.00 0.00 0.00 0.00 0.00 0.00 0.00 0.00 0.00 0.00 0.00 0.00 0.00 0.00 0.00 0.00 0.00 0.00 0.00 0.00 0.00 0.00 0.00 0.00 0.00 0.00 0.00 0.00 0.00 0.03 0.03 0.03 0.00 0.00 0.00 0.00 0.00 0.00 0.00 0.00 0.06 0.08 0.09 0.09 0.18 0.12 0.05 0.05 0.05 -0.04 0.01 0.01 0.01 0.03 0.03 0.02 -0.01 0.02 0.02 -0.00 -0.00
0.15 0.10 0.07 0.29 0.64 0.64 0.83 0.62 0.50 0.50 0.68 0.77 0.55 0.55 0.60 0.27 0.27 0.25 0.19 0.16 0.16 0.10 0.06 -0.03 -0.01 -0.01 -0.02 -0.00 0.00 0.00 0.00 0.00 0.00 0.00 0.00 0.00 0.00 0.00 0.00 0.00 0.00 0.00 0.00 0.00 0.00 0.00 0.00 0.00 0.00 0.00 0.00 0.00 0.00 0.00 0.00 0.00 0.00 0.00 0.00 0.00 0.00 0.00 0.00 0.00 0.00 0.00 0.00 0.00 0.01 0.01 0.01 0.02 0.02 0.02 0.03 0.00 0.00 0.00 0.00 0.00 0.00 0.00 0.05 0.07 0.08 0.08 0.18 0.16 0.01 0.01 -0.05 -0.03 -0.16 -0.16 -0.07 -0.08 -0.08 0.05 0.01 0.02 0.02 0.02 0.00
0.16 0.05 0.04 0.09 0.27 0.27 0.46 0.63 0.48 0.48 0.60 0.82 0.71 0.71 0.78 0.11 0.11 0.12 0.10 0.12 0.12 0.09 0.03 -0.02 -0.04 -0.04 -0.03 -0.00 0.00 0.00 0.00 0.00 0.00 0.00 0.00 0.00 0.00 0.00 0.00 0.00 0.00 0.00 0.00 0.00 0.00 0.00 0.00 0.00 0.00 0.00 0.00 0.00 0.00 0.00 0.00 0.00 0.00 0.00 0.00 0.00 0.00 0.00 0.00 0.00 0.00 0.00 0.00 0.00 0.01 0.01 0.01 0.00 0.02 0.02 0.04 0.00 0.00 0.00 0.00 0.00 0.00 0.00 0.05 0.07 0.08 0.08 0.18 0.17 0.18 0.18 0.04 0.06 -0.03 -0.03 -0.12 -0.10 -0.10 -0.07 0.02 0.02 0.02 0.02 0.00
0.27 0.05 0.09 0.09 0.18 0.18 0.14 0.23 0.46 0.46 0.50 0.57 0.80 0.80 0.80 0.58 0.58 0.01 0.04 0.09 0.09 0.05 0.03 -0.02 -0.02 -0.02 -0.02 -0.00 0.00 0.00 0.00 0.00 0.00 0.00 0.00 0.00 0.00 0.00 0.00 0.00 0.00 0.00 0.00 0.00 0.00 0.00 0.00 0.00 0.00 0.00 0.00 0.00 0.00 0.00 0.00 0.00 0.00 0.00 0.00 0.00 0.00 0.00 0.00 0.00 0.00 0.00 0.00 0.00 0.00 0.00 0.01 0.01 0.00 0.00 0.04 0.01 0.01 0.00 0.00 0.00 0.00 0.00 0.04 0.06 0.08 0.08 0.16 0.18 0.20 0.20 0.12 0.09 0.02 0.02 -0.02 -0.04 -0.04 -0.06 -0.09 -0.10 -0.10 0.02 0.00
0.21 0.07 0.03 0.14 0.14 0.14 0.11 0.09 0.19 0.19 0.27 0.39 0.53 0.53 0.72 0.60 0.60 0.07 -0.01 0.05 0.05 0.05 0.02 0.00 -0.00 -0.00 -0.01 -0.01 0.00 0.00 0.00 0.00 0.00 0.00 0.00 0.00 0.00 0.00 0.00 0.00 0.00 0.00 0.00 0.00 0.00 0.00 0.00 0.00 0.00 0.00 0.00 0.00 0.00 0.00 0.00 0.00 0.00 0.00 0.00 0.00 0.00 0.00 0.00 0.00 0.00 0.00 0.00 0.00 0.00 0.00 0.01 0.01 0.01 0.01 0.02 0.02 0.02 0.00 0.00 0.00 0.00 0.00 0.00 0.07 0.09 0.09 0.08 0.17 0.22 0.22 0.14 0.13 0.02 0.02 0.00 0.00 0.00 0.00 -0.05 -0.04 -0.04 -0.07 -0.01
0.10 0.08 0.02 0.11 0.17 0.17 0.15 0.10 0.08 0.08 0.09 0.00 0.18 0.18 0.38 0.58 0.58 0.18 0.01 0.02 0.02 0.05 0.04 0.01 0.00 0.00 0.00 -0.01 -0.00 -0.00 0.00 0.00 0.00 0.00 0.00 0.00 0.00 0.00 0.00 0.00 0.00 0.00 0.00 0.00 0.00 0.00 0.00 0.00 0.00 0.00 0.00 0.00 0.00 0.00 0.00 0.00 0.00 0.00 0.00 0.00 0.00 0.00 0.00 0.00 0.00 0.00 0.00 0.00 0.00 0.00 0.00 0.02 0.02 0.02 0.01 0.02 0.02 0.00 0.00 0.00 0.00 0.00 0.00 0.04 0.10 0.10 0.08 0.08 0.18 0.18 0.16 0.17 0.11 0.11 0.00 0.00 0.00 0.00 0.01 0.01 0.01 -0.01 -0.05
0.14 0.04 -0.03 0.06 0.23 0.23 0.16 0.09 0.06 0.06 0.05 -0.01 0.07 0.07 0.12 0.25 0.25 0.23 0.07 0.03 0.03 0.05 0.04 0.02 0.00 0.00 -0.00 -0.01 -0.00 -0.00 0.00 0.00 -0.00 -0.00 0.00 0.00 0.00 0.00 0.00 0.00 0.00 0.00 0.00 0.00 0.00 0.00 0.00 0.00 0.00 0.00 0.00 0.00 0.00 0.00 0.00 0.00 0.00 0.00 0.00 0.00 0.00 0.00 0.00 0.00 0.00 0.00 0.00 0.00 0.00 0.00 0.00 0.02 0.03 0.03 0.01 0.00 0.00 0.00 0.00 0.00 0.00 0.00 0.00 0.03 0.07 0.07 0.08 0.07 0.07 0.07 0.14 0.17 0.11 0.11 0.05 0.00 0.00 0.00 0.00 0.01 0.01 0.01 0.01
0.35 0.15 -0.01 0.06 0.27 0.27 0.19 0.09 0.03 0.03 0.08 0.02 0.03 0.03 0.03 0.10 0.10 0.09 0.07 0.03 0.03 0.03 0.04 0.02 0.01 0.01 -0.01 -0.01 -0.01 -0.01 0.00 -0.00 -0.00 -0.00 -0.00 0.00 0.00 0.00 0.00 0.00 0.00 0.00 0.00 0.00 0.00 0.00 0.00 0.00 0.00 0.00 0.00 0.00 0.00 0.00 0.00 0.00 0.00 0.00 0.00 0.00 0.00 0.00 0.00 0.00 0.00 0.00 0.00 0.00 0.00 0.00 0.00 0.00 0.03 0.03 0.02 0.00 0.00 0.01 0.00 0.00 0.00 0.00 0.00 0.03 0.06 0.06 0.11 0.06 0.06 0.06 0.07 0.06 0.12 0.12 0.05 0.01 0.01 0.00 0.00 0.00 0.00 0.01 0.01
0.62 0.69 0.32 0.23 0.32 0.32 0.43 0.23 0.43 0.43 0.16 0.08 0.15 0.15 -0.01 0.05 0.05 0.08 0.13 0.05 0.05 0.01 0.06 0.01 -0.01 -0.01 0.01 -0.02 -0.01 -0.01 -0.01 -0.01 -0.01 -0.01 -0.02 -0.01 -0.01 -0.01 -0.00 -0.00 -0.00 0.00 0.00 0.00 0.00 0.00 0.00 0.00 0.00 0.00 0.00 0.00 0.00 0.00 0.00 0.00 0.00 0.00 0.00 0.00 0.00 0.00 0.00 0.00 0.00 0.00 0.00 0.00 0.00 0.00 0.00 0.00 0.00 0.00 0.01 0.00 0.00 0.01 0.01 0.00 0.00 0.00 0.00 0.00 0.07 0.07 0.12 0.09 0.04 0.04 0.06 0.06 0.09 0.09 0.12 0.02 0.02 0.00 0.00 0.00 0.00 0.00 0.00
0.66 0.74 0.55 0.50 0.39 0.39 0.48 0.46 0.71 0.71 0.46 0.20 0.25 0.25 0.04 0.01 0.01 0.11 0.14 0.10 0.10 0.05 0.03 -0.03 -0.03 -0.03 -0.01 -0.02 -0.02 -0.02 -0.01 -0.01 -0.02 -0.02 -0.02 -0.02 -0.02 -0.02 -0.01 -0.01 -0.01 -0.01 0.00 0.00 0.00 0.00 0.00 0.00 0.00 0.00 0.00 0.00 0.00 0.00 0.00 0.00 0.00 0.00 0.00 0.00 0.00 0.00 0.00 0.00 0.00 0.00 0.00 0.00 0.00 0.00 0.00 0.00 0.00 0.00 0.01 0.03 0.03 0.01 0.01 0.00 0.00 0.00 0.00 0.00 0.02 0.02 0.11 0.09 0.03 0.03 0.03 0.05 0.08 0.08 0.13 0.09 0.09 0.00 0.00 0.00 0.00 0.00 0.00
0.62 0.74 0.68 0.65 0.76 0.76 0.52 0.96 0.90 0.90 0.92 0.52 0.33 0.33 0.30 0.09 0.09 0.15 0.18 0.10 0.10 0.07 0.05 -0.00 -0.01 -0.01 -0.01 -0.03 -0.03 -0.03 -0.02 -0.01 -0.02 -0.02 -0.02 -0.03 -0.03 -0.08 -0.05 -0.03 -0.03 -0.02 -0.01 0.00 0.00 0.00 0.00 0.00 0.00 0.00 0.00 0.00 0.00 0.00 0.00 0.00 0.00 0.00 0.00 0.00 0.00 0.00 0.00 0.00 0.00 0.00 0.00 0.00 0.00 0.00 0.00 0.00 0.00 0.00 0.00 0.02 0.02 0.00 0.01 0.00 0.00 0.00 0.00 0.00 0.02 0.02 0.09 0.08 0.02 0.02 0.03 0.05 0.08 0.08 0.11 0.09 0.09 0.03 0.00 0.01 0.01 0.00 0.00
0.52 0.61 0.82 0.89 1.13 1.13 1.09 1.29 1.11 1.11 1.10 0.85 0.63 0.63 0.42 0.25 0.25 0.22 0.21 0.11 0.11 0.09 0.05 -0.04 -0.04 -0.04 -0.01 0.03 -0.02 -0.02 -0.02 -0.02 -0.02 -0.02 -0.02 -0.03 -0.03 -0.10 -0.09 -0.06 -0.06 -0.06 -0.03 -0.01 0.00 0.00 0.00 0.00 0.00 0.00 0.00 0.00 0.00 0.00 0.00 0.00 0.00 0.00 0.00 0.00 0.00 0.00 0.00 0.00 0.00 0.00 0.00 0.00 0.00 0.00 0.00 0.00 0.00 0.00 0.00 0.02 0.02 0.00 0.00 0.00 0.00 0.00 0.00 0.00 0.01 0.01 0.08 0.09 0.02 0.02 0.01 0.04 0.06 0.06 0.09 0.09 0.09 0.03 0.00 0.02 0.02 0.02 0.00
0.73 0.66 0.74 1.00 1.07 1.07 1.09 1.58 1.46 1.46 1.30 1.16 0.88 0.88 0.67 0.35 0.35 0.17 0.12 0.14 0.14 0.06 0.06 -0.02 -0.07 -0.07 -0.05 0.08 -0.01 -0.01 -0.01 -0.02 -0.03 -0.03 -0.03 -0.02 -0.02 -0.03 -0.08 -0.07 -0.07 -0.10 -0.05 -0.02 -0.00 -0.00 0.00 0.00 0.00 0.00 0.00 0.00 0.00 0.00 0.00 0.00 0.00 0.00 0.00 0.00 0.00 0.00 0.00 0.00 0.00 0.00 0.00 0.00 0.00 0.00 0.00 0.00 0.00 0.00 0.00 0.01 0.01 0.00 0.00 0.00 0.00 0.00 0.00 0.00 0.00 0.00 0.07 0.07 0.07 0.07 0.02 0.02 0.06 0.06 0.07 0.07 0.07 0.03 0.00 0.00 0.00 0.02 0.01
0.94 0.84 0.79 0.95 1.00 1.00 1.02 1.63 1.70 1.70 1.50 1.24 1.03 1.03 0.75 0.57 0.57 0.13 -0.00 0.00 0.00 0.04 0.05 -0.01 -0.04 -0.04 -0.06 -0.00 -0.01 -0.01 -0.03 -0.06 -0.04 -0.04 -0.04 -0.05 -0.05 -0.05 -0.08 -0.15 -0.15 -0.17 -0.12 -0.03 -0.01 -0.01 -0.00 0.00 0.00 0.00 0.00 0.00 0.00 0.00 0.00 0.00 0.00 0.00 0.00 0.00 0.00 0.00 0.00 0.00 0.00 0.00 0.00 0.00 0.00 0.00 0.00 0.00 0.00 0.00 0.00 0.00 0.00 0.00 0.00 0.00 0.00 0.00 0.00 0.00 0.00 0.00 0.00 0.05 0.06 0.06 0.02 0.01 0.04 0.04 0.06 0.07 0.07 0.06 0.01 0.01 0.01 0.03 0.04
1.19 0.95 0.84 0.87 0.94 0.94 0.96 1.43 1.71 1.71 1.71 1.49 0.95 0.95 0.79 0.61 0.61 0.20 0.02 -0.04 -0.04 0.06 0.09 0.07 0.04 0.04 -0.03 -0.03 -0.03 -0.03 -0.07 -0.13 -0.07 -0.07 -0.06 -0.11 -0.11 -0.12 -0.12 -0.18 -0.18 -0.19 -0.17 -0.06 -0.03 -0.03 -0.00 -0.00 0.00 0.00 0.00 0.00 0.00 0.00 0.00 0.00 0.00 0.00 0.00 0.00 0.00 0.00 0.00 0.00 0.00 0.00 0.00 0.00 0.00 0.00 0.00 0.00 0.00 0.00 0.00 0.00 0.00 0.00 0.00 0.00 0.00 0.00 0.00 0.00 0.00 0.00 0.00 0.02 0.04 0.04 0.01 0.00 0.01 0.01 0.05 0.04 0.04 0.04 0.02 0.01 0.01 0.04 0.05
1.37 1.11 0.89 0.78 0.80 0.80 0.87 0.98 1.57 1.57 1.70 1.57 1.01 1.01 0.97 0.86 0.86 0.35 0.14 0.44 0.44 0.34 0.15 0.07 0.05 0.05 -0.03 -0.04 -0.05 -0.05 -0.14 -0.13 -0.12 -0.12 -0.19 -0.16 -0.16 -0.20 -0.20 -0.19 -0.19 -0.16 -0.15 -0.13 -0.08 -0.08 -0.03 -0.08 -0.03 -0.03 0.00 0.00 0.00 0.00 0.00 0.00 0.00 0.00 0.00 0.00 0.00 0.00 0.00 0.00 0.00 0.00 0.00 0.00 0.00 0.00 0.00 0.00 0.00 0.00 0.00 0.00 0.00 0.00 0.00 0.00 0.00 0.00 0.00 0.00 0.00 0.00 0.00 0.00 0.01 0.01 0.00 0.00 0.00 0.00 0.01 0.02 0.02 0.03 0.03 0.04 0.04 0.07 0.08
1.45 1.21 1.09 0.77 0.73 0.73 0.68 0.84 1.35 1.35 1.59 1.66 1.41 1.41 1.25 1.27 1.27 1.07 0.60 0.78 0.78 0.56 0.17 0.10 0.05 0.05 -0.02 -0.03 -0.05 -0.05 -0.05 -0.11 -0.14 -0.14 -0.21 -0.14 -0.14 -0.14 -0.22 -0.27 -0.27 -0.26 -0.21 -0.15 -0.16 -0.16 -0.13 -0.12 -0.06 -0.06 -0.02 -0.01 -0.01 -0.01 -0.01 -0.01 -0.01 -0.00 0.00 -0.00 -0.00 0.00 0.00 0.00 0.00 0.00 0.00 0.00 0.00 0.00 0.00 0.00 0.00 0.00 0.00 0.00 0.00 0.00 0.00 0.00 0.00 0.00 0.00 0.00 0.00 0.00 0.00 0.00 0.00 0.00 0.00 0.00 0.00 0.00 0.00 0.00 0.00 0.05 0.05 0.06 0.06 0.04 0.09
1.49 1.33 1.27 1.11 0.79 0.79 0.68 0.72 1.16 1.16 1.36 1.63 1.80 1.80 1.66 1.48 1.48 1.36 1.11 0.86 0.86 0.60 0.18 0.09 0.05 0.05 0.02 -0.02 -0.02 -0.02 -0.02 -0.05 -0.07 -0.07 -0.09 -0.10 -0.10 -0.16 -0.23 -0.36 -0.36 -0.38 -0.27 -0.28 -0.23 -0.23 -0.21 -0.18 -0.12 -0.12 -0.08 -0.01 -0.00 -0.00 -0.01 0.00 0.00 -0.01 -0.00 -0.02 -0.02 -0.01 -0.00 0.00 0.00 0.00 -0.00 0.00 0.00 0.00 0.00 0.00 0.00 0.00 0.00 0.00 0.00 0.00 0.00 0.00 0.00 0.00 0.00 0.00 0.00 0.00 0.00 0.00 0.00 0.00 0.00 0.00 0.00 0.00 0.00 0.00 0.00 0.02 0.07 0.08 0.08 0.05 0.09
1.16 0.99 1.21 1.22 1.04 1.04 0.83 0.72 1.09 1.09 1.22 1.43 1.69 1.69 1.77 1.64 1.64 1.49 1.20 1.13 1.13 0.87 0.53 0.11 0.05 0.05 0.01 0.05 0.05 0.05 -0.05 -0.04 -0.02 -0.02 -0.03 -0.07 -0.07 -0.12 -0.49 -0.44 -0.44 -0.33 -0.22 -0.30 -0.27 -0.27 -0.18 -0.13 -0.10 -0.10 -0.09 -0.09 -0.04 -0.04 -0.03 -0.02 -0.02 -0.01 -0.01 -0.05 -0.05 -0.06 -0.04 -0.03 -0.01 -0.01 -0.03 -0.01 0.00 0.00 0.00 0.00 0.00 0.00 0.00 0.00 0.00 -0.00 0.00 0.00 0.00 0.00 0.00 0.00 0.00 0.00 0.00 -0.01 0.00 0.00 0.00 0.00 0.00 0.00 0.00 0.00 0.00 0.02 0.09 0.14 0.14 0.04 0.10
0.58 0.58 0.79 1.02 1.27 1.27 1.09 0.90 0.76 0.76 1.23 1.27 1.35 1.35 1.76 1.62 1.62 1.56 1.59 1.37 1.37 1.08 0.77 0.26 0.10 0.10 0.04 0.00 -0.01 -0.01 -0.05 -0.08 -0.04 -0.04 -0.09 -0.09 -0.09 -0.20 -0.26 -0.21 -0.21 -0.18 -0.15 -0.22 -0.24 -0.24 -0.10 -0.06 -0.06 -0.06 -0.04 -0.04 -0.03 -0.03 -0.03 -0.04 -0.04 -0.04 -0.05 -0.09 -0.09 -0.09 -0.09 -0.07 -0.04 -0.04 -0.08 -0.05 -0.01 -0.01 -0.00 -0.00 0.00 0.00 -0.00 0.00 0.00 0.00 0.00 0.00 0.00 0.00 0.00 0.00 0.00 0.00 0.00 0.00 0.00 0.00 0.00 0.00 0.00 0.00 0.00 0.00 0.00 0.03 0.10 0.16 0.16 0.14 0.06
0.39 0.46 0.48 0.66 1.12 1.12 1.23 1.08 0.86 0.86 1.18 1.30 1.25 1.25 1.61 1.77 1.77 1.69 1.66 1.28 1.28 1.10 0.89 0.67 0.34 0.34 0.14 0.04 0.04 0.04 0.01 -0.04 -0.11 -0.11 -0.14 -0.11 -0.11 -0.13 -0.16 -0.14 -0.14 -0.16 -0.17 -0.16 -0.17 -0.17 -0.05 -0.04 -0.06 -0.06 -0.04 -0.03 -0.05 -0.05 -0.05 -0.06 -0.06 -0.07 -0.08 -0.12 -0.12 -0.11 -0.09 -0.08 -0.09 -0.09 -0.07 -0.04 -0.02 -0.02 -0.01 -0.00 -0.00 -0.00 0.00 0.00 0.00 0.00 0.00 0.00 0.00 0.00 0.00 0.00 0.00 0.00 0.00 0.00 0.00 0.00 0.00 0.00 0.00 0.00 0.00 0.00 0.00 0.01 0.09 0.16 0.16 0.18 0.08
0.10 0.39 0.36 0.46 0.81 0.81 1.01 1.09 1.01 1.01 1.14 1.44 1.47 1.47 1.44 1.67 1.67 1.74 1.71 1.47 1.47 1.22 1.09 0.92 0.56 0.56 0.34 0.15 0.22 0.22 0.10 0.05 -0.04 -0.04 -0.14 -0.14 -0.14 -0.17 -0.14 -0.15 -0.15 -0.20 -0.21 -0.19 -0.09 -0.09 -0.06 -0.06 -0.05 -0.05 -0.03 -0.04 -0.05 -0.05 -0.05 -0.08 -0.08 -0.11 -0.13 -0.13 -0.13 -0.12 -0.11 -0.10 -0.09 -0.09 -0.13 -0.09 -0.05 -0.05 -0.02 -0.01 -0.00 -0.00 -0.00 0.00 0.00 0.00 0.00 0.00 0.00 0.00 0.00 0.00 0.00 0.00 0.00 0.00 0.00 0.00 0.00 0.00 0.00 0.00 0.00 0.00 0.00 0.01 0.05 0.09 0.09 0.19 0.09
0.04 0.16 0.30 0.35 0.48 0.48 0.64 0.85 1.01 1.01 0.97 1.26 1.62 1.62 1.79 2.01 2.01 2.07 2.06 2.12 2.12 1.83 1.43 1.08 0.52 0.52 0.45 0.44 0.45 0.45 0.28 0.16 0.05 0.05 -0.01 -0.10 -0.10 -0.04 -0.00 -0.06 -0.06 -0.09 -0.11 -0.11 -0.03 -0.03 -0.05 -0.04 -0.09 -0.09 -0.07 -0.02 -0.02 -0.02 -0.03 -0.04 -0.04 -0.10 -0.12 -0.11 -0.11 -0.10 -0.10 -0.09 -0.07 -0.07 -0.06 -0.06 -0.06 -0.06 -0.02 -0.01 -0.00 -0.00 -0.00 0.00 0.00 0.00 0.00 -0.00 -0.00 0.00 0.00 0.00 0.00 0.00 0.00 0.00 0.00 0.00 0.00 0.00 0.00 0.00 0.00 0.00 0.00 0.01 0.06 0.11 0.11 0.15 0.12
0.06 0.06 0.12 0.26 0.43 0.43 0.44 0.52 0.73 0.73 0.78 0.91 1.28 1.28 1.66 1.80 1.80 2.01 2.18 2.28 2.28 1.93 1.62 1.24 0.98 0.98 0.42 0.51 0.58 0.58 0.61 0.36 0.16 0.16 0.08 0.06 0.06 0.14 0.06 -0.03 -0.03 -0.06 -0.08 -0.05 -0.08 -0.08 -0.07 -0.05 -0.09 -0.09 -0.07 -0.01 -0.04 -0.04 -0.05 -0.07 -0.07 -0.08 -0.11 -0.12 -0.12 -0.12 -0.10 -0.09 -0.09 -0.09 -0.06 -0.04 -0.03 -0.03 -0.00 -0.00 -0.00 -0.00 0.00 0.00 0.00 0.00 0.00 0.00 0.00 0.00 0.00 0.00 0.00 0.00 0.00 0.00 0.00 0.00 0.00 0.00 0.00 0.00 0.00 0.00 0.00 0.00 0.07 0.12 0.12 0.16 0.18
0.06 0.05 0.06 0.12 0.29 0.29 0.56 0.46 0.46 0.46 0.53 0.51 0.78 0.78 0.66 0.82 0.82 1.35 1.64 1.97 1.97 2.01 2.01 1.83 1.41 1.41 0.67 0.87 0.76 0.76 0.73 0.51 0.34 0.34 0.16 0.14 0.14 0.14 0.14 0.04 0.04 -0.05 -0.05 -0.07 -0.04 -0.04 -0.03 -0.09 -0.08 -0.08 -0.10 -0.11 -0.15 -0.15 -0.14 -0.17 -0.17 -0.15 -0.23 -0.21 -0.21 -0.21 -0.19 -0.12 -0.10 -0.10 -0.06 -0.04 -0.02 -0.02 -0.00 0.00 0.00 0.00 0.00 -0.00 -0.00 0.00 0.00 0.00 0.00 0.00 0.00 0.00 0.00 0.00 0.00 0.00 0.00 0.00 0.00 0.00 0.00 0.00 0.00 0.00 0.00 0.00 0.00 0.09 0.09 0.15 0.18
0.04 0.05 0.05 0.07 0.13 0.13 0.55 0.71 0.61 0.61 0.59 0.47 0.53 0.53 0.41 0.45 0.45 0.78 1.03 1.43 1.43 1.76 2.31 2.15 1.72 1.72 1.60 1.31 1.07 1.07 0.73 0.51 0.43 0.43 0.38 0.34 0.34 0.21 0.15 0.13 0.13 0.02 -0.02 -0.03 -0.03 -0.03 -0.02 -0.02 -0.04 -0.04 -0.07 -0.03 -0.06 -0.06 -0.19 -0.21 -0.21 -0.22 -0.08 -0.11 -0.11 -0.14 -0.16 -0.15 -0.01 -0.01 -0.00 -0.00 -0.00 -0.00 -0.01 0.00 0.00 0.00 -0.00 0.00 0.00 0.00 0.00 0.00 0.00 0.00 0.00 0.00 0.00 0.00 0.00 0.00 0.00 0.00 0.00 0.00 0.00 0.00 0.00 0.00 0.00 0.00 0.00 0.00 0.00 0.06 0.16
0.04 0.06 0.08 0.10 0.13 0.13 0.19 0.68 0.90 0.90 0.89 0.73 0.52 0.52 0.50 0.35 0.35 0.54 0.81 0.99 0.99 1.38 2.19 2.31 1.95 1.95 2.18 1.72 1.26 1.26 0.76 0.49 0.41 0.41 0.38 0.36 0.36 0.13 0.09 0.12 0.12 0.08 0.03 -0.01 -0.02 -0.02 -0.03 -0.02 -0.01 -0.01 -0.02 -0.00 -0.01 -0.01 -0.05 -0.12 -0.12 -0.09 -0.07 -0.03 -0.03 -0.02 -0.02 -0.01 -0.01 -0.01 -0.01 -0.01 -0.01 -0.01 -0.01 -0.00 0.00 0.00 0.00 0.00 0.00 0.00 0.00 0.00 0.00 0.00 0.00 0.00 0.00 0.00 0.00 0.00 0.00 0.00 0.00 0.00 0.00 0.00 0.02 0.03 0.03 0.02 0.00 0.00 0.00 0.04 0.09